Simultaneous Nadir Overpasses (SNOs) Predictions

Prediction of SNOs between METOP-B and NOAA-19 Satellite Orbit:

Table of predicted SNOs for the next 14.0 days since TLE Epoch: 10/28/2022
Index Date (METOP-B) Time (METOP-B) Lat,Lon (METOP-B) SZA (METOP-B ) Date (NOAA-19) Time (NOAA-19) Lat,Lon (NOAA-19) SZA (NOAA-19 ) Distance(km) Time Diff (sec)
1 11/08/2022 08:46:41 80.90, 83.03 99.40 11/08/2022 08:45:26 80.90, 83.12 99.38 1.64 75
2 11/08/2022 09:37:22 -80.91,-109.50 80.58 11/08/2022 09:36:21 -80.90,-109.41 80.60 1.74 61
3 11/08/2022 10:28:02 80.91, 57.90 99.45 11/08/2022 10:27:25 80.90, 57.86 99.42 1.22 37
4 11/08/2022 11:18:44 -80.90,-134.99 80.57 11/08/2022 11:18:21 -80.90,-135.03 80.59 0.86 23
5 11/08/2022 12:09:24 80.90, 32.41 99.45 11/08/2022 12:09:25 80.90, 32.23 99.43 3.15 1
6 11/08/2022 13:00:05 -80.91,-160.11 80.53 11/08/2022 13:00:20 -80.90,-160.29 80.54 3.20 15
7 11/08/2022 13:50:46 80.90, 6.93 99.45 11/08/2022 13:51:24 80.90, 6.98 99.47 1.04 38
8 11/08/2022 14:41:27 -80.90, 174.40 80.53 11/08/2022 14:42:19 -80.90, 174.46 80.50 1.23 52



Historial Predications of SNOs between METOP-B and NOAA-19
